Regional Weather Roundup
Issued by NWS

Home | Current Version | Previous Version | Graphics & Text | Print | Product List | Glossary On
Versions: 1 2 3 4 5 6 7 8 9 10 11 12 13 14 15 16 17 18 19 20 21 22 23 24 25 26 27 28 29 30 31 32 33 34 35 36 37 38 39 40 41 42 43 44 45 46 47 48 49 50
409
ASUS43 KLOT 250504
RWRIL

ILLINOIS REGIONAL WEATHER ROUNDUP
NATIONAL WEATHER SERVICE CHICAGO/ROMEOVILLE IL
1200 AM CDT MON SEP 25 2017

NOTE: "FAIR" INDICATES FEW OR NO CLOUDS BELOW 12,000 FEET WITH NO
SIGNIFICANT WEATHER AND/OR OBSTRUCTIONS TO VISIBILITY.

* THESE STATIONS ARE NOT UNDER NWS QUALITY CONTROL. THEY ALSO MAY NOT
  REPORT WEATHER SUCH AS PRECIPITATION OR FOG.

ILZ001-002-007-009-015-016-024-250600-
NORTHWEST ILLINOIS

CITY           SKY/WX    TMP DP  RH WIND       PRES   REMARKS
MOLINE         CLEAR     70  62  76 E3        29.96S
STERLING*      CLEAR     66  62  87 E5        29.98F
SAVANNA*       CLEAR     67  64  91 CALM      29.98S
$$

ILZ003-004-008-010-011-017-018-250600-
NORTH CENTRAL ILLINOIS

CITY           SKY/WX    TMP DP  RH WIND       PRES   REMARKS
ROCKFORD       CLEAR     71  60  68 CALM      30.00S
FREEPORT*      CLEAR     67  60  78 SE6       30.00F
ROCHELLE*      CLEAR     65  60  85 SE3       30.00F
DE KALB*       CLEAR     70  61  73 SE5       30.01F
$$

ILZ005-006-012>014-019>023-250600-
NORTHEAST ILLINOIS

CITY           SKY/WX    TMP DP  RH WIND       PRES   REMARKS
CHICAGO-OHARE  CLEAR     73  61  65 SE5       30.00F
CHICAGO-MIDWAY CLEAR     78  61  55 S6        30.00F HX  80
AURORA         CLEAR     69  62  78 SE3       30.00F
LANSING*       CLEAR     68  64  85 CALM      30.01F
JOLIET*        CLEAR     75  61  61 SE5       30.00S
WAUKEGAN       CLEAR     73  67  81 SE6       30.00F
DUPAGE AIRPORT CLEAR     69  62  78 SE5       30.00S
KANKAKEE*      CLEAR     67  61  79 SE3       30.02S
WHEELING       CLEAR     71  65  81 CALM      30.01F
MORRIS*        CLEAR     72  62  71 E5        29.99S
NORTHERLY ISL    N/A     71  66  84 CALM        N/A
$$

LMZ740>746-250600-
SOUTHERN LAKE MICHIGAN

STATION/POSITION SKY/WX   TEMP    WIND        PRES    VSBY  WAVE
                          AIR SEA DIR/SP/G                  HT/PER
                          (F)     (DEG/KT/KT) (MB)    (MI)  (FT/S)
SOUTHERN BUOY              74 71   90/  8/ 10 1016.3          0
WILMETTE HARBOR            72 71  150/  4/  4   N/A           1
HARRISON CRIB              75     150/  7/  8   N/A
BURNHAM HARBOR             71                   N/A
CALUMET HARBOR             76     170/  2/  3 1015.6S
BURNS HARBOR               79     140/  9/ 13 1016.9S
MICHIGAN CITY              74     130/  7/  8   N/A
MICHIGAN CITY 6N           73 72  150/  6/  8   N/A           0
ST. JOSEPH                 74 72  150/  6/  8 1016.3F         0
$$

ILZ025>027-034>036-040-047-049-050-058-095>099-250600-
WEST-CENTRAL ILLINOIS

CITY           SKY/WX    TMP DP  RH WIND       PRES   REMARKS
QUINCY         CLEAR     73  62  68 SE6       29.95F
GALESBURG*     CLEAR     69  61  77 CALM      29.98S
MACOMB*        CLEAR     65  61  86 CALM      29.99S
$$

ILZ028>032-037-038-041>044-048-051>054-059>061-250600-
CENTRAL ILLINOIS

CITY           SKY/WX    TMP DP  RH WIND       PRES   REMARKS
BLOOMINGTON    CLEAR     72  58  61 SE9       30.01F
DECATUR        CLEAR     72  59  63 SE5       30.00S
PEORIA         CLEAR     76  59  55 S3        29.97F
LACON*         CLEAR     75  60  58 SE8       29.97S
LINCOLN*       CLEAR     69  60  74 CALM      29.98F
SPRINGFIELD    CLEAR     73  62  68 SE7       29.97F
TAYLORVILLE    NOT AVBL
$$

ILZ033-039-045-046-055>057-062-063-250600-
EAST-CENTRAL ILLINOIS

CITY           SKY/WX    TMP DP  RH WIND       PRES   REMARKS
CHAMPAIGN      CLEAR     69  57  65 SE5       30.02S
MATTOON        CLEAR     72  60  66 SE5       30.00S
$$

ILZ079-100>102-250600-
SOUTHWEST ILLINOIS

CITY           SKY/WX    TMP DP  RH WIND       PRES   REMARKS
ALTON          CLEAR     69  64  86 SE3       29.98S
BELLEVILLE     CLEAR     67  64  89 S3        29.97S
CAHOKIA*       CLEAR     74  64  71 S6        29.97S
SPARTA*        CLEAR     74  64  71 S3        30.00S
$$

ILZ064>066-069>071-074>076-080>082-084>086-088>090-092>094-250600-
SOUTH-CENTRAL ILLINOIS

CITY           SKY/WX    TMP DP  RH WIND       PRES   REMARKS
CARBONDALE     CLEAR     66  66 100 SE3       29.99S
CAIRO*         CLEAR     65  65  99 CALM      29.99F
EFFINGHAM*     CLEAR     69  62  77 CALM      30.01F
MARION         CLEAR     72  68  88 CALM      30.00S
MT. VERNON       N/A     63  62  97 CALM      30.00S
CENTRALIA*     PTCLDY    67  62  83 S5        29.99S
SALEM*         CLEAR     67  61  80 CALM      30.00S
METROPOLIS*    CLEAR     67  65  92 CALM      30.00F
$$

ILZ067-068-072-073-078-083-087-091-250600-
SOUTHEAST ILLINOIS

CITY           SKY/WX    TMP DP  RH WIND       PRES   REMARKS
LAWRENCEVILLE  CLEAR     72  62  71 E5        30.01S
FLORA*         CLEAR     68  63  84 CALM      30.00F
FAIRFIELD*     CLEAR     67  60  79 CALM      29.99F
HARRISBURG*    CLEAR     67  64  92 CALM      30.00S
ROBINSON*      CLEAR     63  61  93 CALM      30.02S
CARMI*         PTCLDY    66  64  93 CALM      29.99F
$$

ABBREVIATIONS USED IN REMARKS
   TC - TEMPERATURE IN CELSIUS
  WCI - WIND CHILL INDEX
   HX - HEAT INDEX
  VSB - VISIBILITY
$$





USA.gov is the U.S. government's official web portal to all federal, state and local government web resources and services.